Voltar ao catálogo

STARLINK-5279

AtivoComunicaçõesVLEO
NORAD 54165·PAYLOAD·🇺🇸 United States

Lançado Oct 28, 2022 de Vandenberg Space Force Base

Loading…

Próximas Passagens (próximas 24 horas)

TLE

AtualizadoSource: CelesTrak SupGP

Época: Sep 15, 2026, 01:27 UTC

1 54165C 22141J   26258.06090278  .00690200  00000+0  26807-1 0  2584
2 54165  53.1610 242.6839 0001503  94.3675 340.8205 15.25197556    15

Acompanhe STARLINK-5279 em tempo real com AllMySat

Download on the App Store